Time,TemperatureF,DewpointF,PressureIn,WindDirection,WindDirectionDegrees,WindSpeedMPH,WindSpeedGustMPH,Humidity,HourlyPrecipIn,Conditions,Clouds,dailyrainin,SoftwareType,DateUTC
2013-01-26 00:00:00,16.9,14.0,30.07,NW,310,0.0,0.0,88,0.00,,,0.00,meteohub,2013-01-26 05:00:00,
2013-01-26 00:02:00,16.9,14.0,30.07,NW,310,0.0,0.0,88,0.00,,,0.00,meteohub,2013-01-26 05:02:00,
2013-01-26 00:03:00,16.9,14.0,30.07,NW,310,0.0,0.0,88,0.00,,,0.00,meteohub,2013-01-26 05:03:00,
2013-01-26 00:08:00,16.7,14.0,30.07,NW,310,0.0,0.0,89,0.00,,,0.00,meteohub,2013-01-26 05:08:00,
2013-01-26 00:13:00,16.7,14.0,30.06,NW,310,0.0,0.0,89,0.00,,,0.00,meteohub,2013-01-26 05:13:00,
2013-01-26 00:18:00,16.7,13.8,30.06,NW,310,0.0,0.0,88,0.00,,,0.00,meteohub,2013-01-26 05:18:00,
2013-01-26 00:24:00,16.5,13.6,30.06,NW,310,0.0,0.0,88,0.00,,,0.00,meteohub,2013-01-26 05:24:00,
2013-01-26 00:29:00,16.3,13.5,30.06,NW,310,0.0,0.0,88,0.00,,,0.00,meteohub,2013-01-26 05:29:00,
2013-01-26 00:34:00,16.3,13.5,30.06,NW,310,0.0,0.0,88,0.00,,,0.00,meteohub,2013-01-26 05:34:00,
2013-01-26 00:39:00,16.2,13.3,30.06,NW,310,0.0,0.0,88,0.00,,,0.00,meteohub,2013-01-26 05:39:00,
2013-01-26 00:44:00,16.0,12.7,30.06,NW,310,0.0,0.0,87,0.00,,,0.00,meteohub,2013-01-26 05:44:00,
2013-01-26 00:50:00,15.8,12.6,30.06,NW,310,0.0,0.0,87,0.00,,,0.00,meteohub,2013-01-26 05:50:00,
2013-01-26 00:55:00,15.6,12.7,30.06,NW,310,0.0,0.0,88,0.00,,,0.00,meteohub,2013-01-26 05:55:00,
2013-01-26 01:00:00,15.6,12.7,30.06,NW,310,0.0,0.0,88,0.00,,,0.00,meteohub,2013-01-26 06:00:00,
2013-01-26 01:05:00,15.4,12.7,30.06,NW,310,0.0,0.0,89,0.00,,,0.00,meteohub,2013-01-26 06:05:00,
2013-01-26 01:10:00,15.4,12.6,30.05,NW,310,0.0,0.0,88,0.00,,,0.00,meteohub,2013-01-26 06:10:00,
2013-01-26 01:15:00,15.3,12.4,30.05,NW,310,0.0,0.0,88,0.00,,,0.00,meteohub,2013-01-26 06:15:00,
2013-01-26 01:21:00,15.1,12.2,30.05,NW,310,0.0,0.0,88,0.00,,,0.00,meteohub,2013-01-26 06:21:00,
2013-01-26 01:26:00,14.7,11.8,30.06,NW,310,0.0,0.0,88,0.00,,,0.00,meteohub,2013-01-26 06:26:00,
2013-01-26 01:31:00,14.5,11.7,30.06,NW,310,0.0,0.0,88,0.00,,,0.00,meteohub,2013-01-26 06:31:00,
2013-01-26 01:36:00,14.4,11.5,30.06,NW,310,0.0,0.0,88,0.00,,,0.00,meteohub,2013-01-26 06:36:00,
2013-01-26 01:41:00,14.4,11.5,30.06,NW,310,0.0,0.0,88,0.00,,,0.00,meteohub,2013-01-26 06:41:00,
2013-01-26 01:46:00,14.2,11.3,30.06,NW,310,0.0,0.0,88,0.00,,,0.00,meteohub,2013-01-26 06:46:00,
2013-01-26 01:52:00,14.2,11.5,30.06,NW,310,0.0,0.0,89,0.00,,,0.00,meteohub,2013-01-26 06:52:00,
2013-01-26 01:57:00,14.0,11.3,30.05,NW,310,0.0,0.0,89,0.00,,,0.00,meteohub,2013-01-26 06:57:00,
2013-01-26 02:02:00,14.0,11.3,30.06,NW,310,0.0,0.0,89,0.00,,,0.00,meteohub,2013-01-26 07:02:00,
2013-01-26 02:07:00,14.0,11.7,30.06,NW,310,0.0,0.0,90,0.00,,,0.00,meteohub,2013-01-26 07:07:00,
2013-01-26 02:12:00,14.2,11.8,30.06,NW,310,0.0,0.0,90,0.00,,,0.00,meteohub,2013-01-26 07:12:00,
2013-01-26 02:17:00,14.2,11.8,30.05,NW,310,0.0,0.0,90,0.00,,,0.00,meteohub,2013-01-26 07:17:00,
2013-01-26 02:22:00,14.2,11.8,30.05,NW,310,0.0,0.0,90,0.00,,,0.00,meteohub,2013-01-26 07:22:00,
2013-01-26 02:27:00,14.0,11.3,30.05,NW,310,0.0,0.0,89,0.00,,,0.00,meteohub,2013-01-26 07:27:00,
2013-01-26 02:32:00,13.8,11.1,30.05,NW,310,0.0,0.0,89,0.00,,,0.00,meteohub,2013-01-26 07:32:00,
2013-01-26 02:37:00,13.6,10.9,30.05,NW,310,0.0,0.0,89,0.00,,,0.00,meteohub,2013-01-26 07:37:00,
2013-01-26 02:42:00,13.6,10.9,30.05,NW,310,0.0,0.0,89,0.00,,,0.00,meteohub,2013-01-26 07:42:00,
2013-01-26 02:47:00,13.6,10.9,30.04,NW,310,0.0,0.0,89,0.00,,,0.00,meteohub,2013-01-26 07:47:00,
2013-01-26 02:52:00,13.6,10.9,30.04,NW,310,0.0,0.0,89,0.00,,,0.00,meteohub,2013-01-26 07:52:00,
2013-01-26 02:57:00,13.5,10.8,30.04,NW,310,0.0,0.0,89,0.00,,,0.00,meteohub,2013-01-26 07:57:00,
2013-01-26 03:02:00,13.5,10.8,30.04,NW,310,0.0,0.0,89,0.00,,,0.00,meteohub,2013-01-26 08:02:00,
2013-01-26 03:07:00,13.3,10.6,30.04,NW,310,0.0,0.0,89,0.00,,,0.00,meteohub,2013-01-26 08:07:00,
2013-01-26 03:12:00,13.1,10.4,30.04,NW,310,0.0,0.0,89,0.00,,,0.00,meteohub,2013-01-26 08:12:00,
2013-01-26 03:17:00,12.7,9.9,30.04,NW,310,0.0,0.0,88,0.00,,,0.00,meteohub,2013-01-26 08:17:00,
2013-01-26 03:22:00,12.6,9.7,30.04,NW,310,0.0,0.0,88,0.00,,,0.00,meteohub,2013-01-26 08:22:00,
2013-01-26 03:27:00,12.4,9.5,30.04,NW,310,0.0,0.0,88,0.00,,,0.00,meteohub,2013-01-26 08:27:00,
2013-01-26 03:32:00,12.0,9.1,30.04,NW,310,0.0,0.0,88,0.00,,,0.00,meteohub,2013-01-26 08:32:00,
2013-01-26 03:37:00,11.8,9.0,30.04,NW,310,0.0,0.0,88,0.00,,,0.00,meteohub,2013-01-26 08:37:00,
2013-01-26 03:42:00,11.7,8.8,30.04,NW,310,0.0,0.0,88,0.00,,,0.00,meteohub,2013-01-26 08:42:00,
2013-01-26 03:47:00,11.7,9.1,30.04,NW,310,0.0,0.0,89,0.00,,,0.00,meteohub,2013-01-26 08:47:00,
2013-01-26 03:52:00,11.5,9.0,30.04,NW,310,0.0,0.0,89,0.00,,,0.00,meteohub,2013-01-26 08:52:00,
2013-01-26 03:57:00,11.5,9.0,30.05,NW,310,0.0,0.0,89,0.00,,,0.00,meteohub,2013-01-26 08:57:00,
2013-01-26 04:02:00,11.3,8.8,30.05,NW,310,0.0,0.0,89,0.00,,,0.00,meteohub,2013-01-26 09:02:00,
2013-01-26 04:07:00,11.1,8.6,30.05,NW,310,0.0,0.0,89,0.00,,,0.00,meteohub,2013-01-26 09:07:00,
2013-01-26 04:12:00,11.1,8.8,30.05,NW,310,0.0,0.0,90,0.00,,,0.00,meteohub,2013-01-26 09:12:00,
2013-01-26 04:17:00,11.1,8.8,30.05,NW,310,0.0,0.0,90,0.00,,,0.00,meteohub,2013-01-26 09:17:00,
2013-01-26 04:22:00,11.1,9.0,30.05,NW,310,0.0,0.0,91,0.00,,,0.00,meteohub,2013-01-26 09:22:00,
2013-01-26 04:27:00,11.3,9.0,30.05,NW,310,0.0,0.0,90,0.00,,,0.00,meteohub,2013-01-26 09:27:00,
2013-01-26 04:32:00,11.5,9.3,30.05,NW,310,0.0,0.0,91,0.00,,,0.00,meteohub,2013-01-26 09:32:00,
2013-01-26 04:37:00,11.7,9.5,30.05,NW,310,0.0,0.0,91,0.00,,,0.00,meteohub,2013-01-26 09:37:00,
2013-01-26 04:42:00,11.7,9.5,30.05,NW,310,0.0,0.0,91,0.00,,,0.00,meteohub,2013-01-26 09:42:00,
2013-01-26 04:47:00,11.8,9.7,30.05,NW,310,0.0,0.0,91,0.00,,,0.00,meteohub,2013-01-26 09:47:00,
2013-01-26 04:52:00,11.8,9.7,30.05,NW,310,0.0,0.0,91,0.00,,,0.00,meteohub,2013-01-26 09:52:00,
2013-01-26 04:57:00,12.2,10.0,30.04,NW,310,0.0,0.0,91,0.00,,,0.00,meteohub,2013-01-26 09:57:00,
2013-01-26 05:02:00,12.4,10.2,30.04,NW,310,0.0,0.0,91,0.00,,,0.00,meteohub,2013-01-26 10:02:00,
2013-01-26 05:07:00,12.4,10.0,30.04,NW,310,0.0,0.0,90,0.00,,,0.00,meteohub,2013-01-26 10:07:00,
2013-01-26 05:12:00,12.2,9.9,30.04,NW,310,0.0,0.0,90,0.00,,,0.00,meteohub,2013-01-26 10:12:00,
2013-01-26 05:17:00,12.4,10.0,30.04,NW,310,0.0,0.0,90,0.00,,,0.00,meteohub,2013-01-26 10:17:00,
2013-01-26 05:22:00,12.4,10.0,30.04,NW,310,0.0,0.0,90,0.00,,,0.00,meteohub,2013-01-26 10:22:00,
2013-01-26 05:27:00,12.2,9.9,30.05,NW,310,0.0,0.0,90,0.00,,,0.00,meteohub,2013-01-26 10:27:00,
2013-01-26 05:32:00,12.2,9.9,30.05,NW,310,0.0,0.0,90,0.00,,,0.00,meteohub,2013-01-26 10:32:00,
2013-01-26 05:37:00,12.4,10.0,30.05,NW,310,0.0,0.0,90,0.00,,,0.00,meteohub,2013-01-26 10:37:00,
2013-01-26 05:42:00,12.2,9.5,30.05,NW,310,0.0,0.0,89,0.00,,,0.00,meteohub,2013-01-26 10:42:00,
2013-01-26 05:47:00,12.2,9.5,30.06,NW,310,0.0,0.0,89,0.00,,,0.00,meteohub,2013-01-26 10:47:00,
2013-01-26 05:52:00,12.0,9.3,30.06,NW,310,0.0,0.0,89,0.00,,,0.00,meteohub,2013-01-26 10:52:00,
2013-01-26 05:57:00,12.0,9.3,30.06,NW,310,0.0,0.0,89,0.00,,,0.00,meteohub,2013-01-26 10:57:00,
2013-01-26 06:02:00,12.0,9.3,30.06,NW,310,0.0,0.0,89,0.00,,,0.00,meteohub,2013-01-26 11:02:00,
2013-01-26 06:07:00,11.8,9.1,30.06,NW,310,0.0,0.0,89,0.00,,,0.00,meteohub,2013-01-26 11:07:00,
2013-01-26 06:12:00,12.0,9.3,30.06,NW,310,0.0,0.0,89,0.00,,,0.00,meteohub,2013-01-26 11:12:00,
2013-01-26 06:17:00,12.0,9.1,30.07,NW,310,0.0,0.0,88,0.00,,,0.00,meteohub,2013-01-26 11:17:00,
2013-01-26 06:22:00,12.0,9.1,30.07,NW,310,0.0,0.0,88,0.00,,,0.00,meteohub,2013-01-26 11:22:00,
2013-01-26 06:27:00,12.0,9.0,30.07,NW,310,0.0,0.0,87,0.00,,,0.00,meteohub,2013-01-26 11:27:00,
2013-01-26 06:32:00,11.8,8.8,30.08,NW,310,0.0,0.0,87,0.00,,,0.00,meteohub,2013-01-26 11:32:00,
2013-01-26 06:37:00,11.8,8.8,30.08,NW,310,0.0,0.0,87,0.00,,,0.00,meteohub,2013-01-26 11:37:00,
2013-01-26 06:42:00,11.8,8.8,30.08,NW,310,0.0,0.0,87,0.00,,,0.00,meteohub,2013-01-26 11:42:00,
2013-01-26 06:47:00,12.0,9.0,30.08,NW,310,0.0,0.0,87,0.00,,,0.00,meteohub,2013-01-26 11:47:00,
2013-01-26 06:52:00,12.0,8.6,30.08,NW,310,0.0,0.0,86,0.00,,,0.00,meteohub,2013-01-26 11:52:00,
2013-01-26 06:57:00,12.4,9.0,30.09,NW,310,0.0,0.0,86,0.00,,,0.00,meteohub,2013-01-26 11:57:00,
2013-01-26 07:02:00,12.4,9.0,30.09,NW,310,0.0,0.0,86,0.00,,,0.00,meteohub,2013-01-26 12:02:00,
2013-01-26 07:07:00,12.4,8.8,30.09,NW,310,0.0,0.0,85,0.00,,,0.00,meteohub,2013-01-26 12:07:00,
2013-01-26 07:13:00,12.4,8.8,30.09,North,-999,-999.0,0.0,85,0.00,,,0.00,meteohub,2013-01-26 12:13:00,
2013-01-26 07:18:00,12.4,8.8,30.10,NW,310,0.0,0.0,85,0.00,,,0.00,meteohub,2013-01-26 12:18:00,
2013-01-26 07:23:00,12.4,8.8,30.10,NW,310,0.0,0.0,85,0.00,,,0.00,meteohub,2013-01-26 12:23:00,
2013-01-26 07:28:00,12.4,8.8,30.10,NW,310,0.0,0.0,85,0.00,,,0.00,meteohub,2013-01-26 12:28:00,
2013-01-26 07:33:00,12.4,8.4,30.10,NW,310,0.0,0.0,84,0.00,,,0.00,meteohub,2013-01-26 12:33:00,
2013-01-26 07:38:00,12.4,8.4,30.10,NW,310,0.0,0.0,84,0.00,,,0.00,meteohub,2013-01-26 12:38:00,
2013-01-26 07:44:00,12.4,8.4,30.11,NW,310,0.0,0.0,84,0.00,,,0.00,meteohub,2013-01-26 12:44:00,
2013-01-26 07:49:00,12.4,8.4,30.11,NW,310,0.0,0.0,84,0.00,,,0.00,meteohub,2013-01-26 12:49:00,
2013-01-26 07:54:00,12.6,8.6,30.11,NW,310,0.0,0.0,84,0.00,,,0.00,meteohub,2013-01-26 12:54:00,
2013-01-26 07:59:00,12.6,8.6,30.11,NW,310,0.0,0.0,84,0.00,,,0.00,meteohub,2013-01-26 12:59:00,
2013-01-26 08:04:00,12.9,9.0,30.11,NW,310,0.0,0.0,84,0.00,,,0.00,meteohub,2013-01-26 13:04:00,
2013-01-26 08:09:00,13.3,9.3,30.12,NW,310,0.0,0.0,84,0.00,,,0.00,meteohub,2013-01-26 13:09:00,
2013-01-26 08:15:00,13.6,9.5,30.12,NW,310,0.0,0.0,83,0.00,,,0.00,meteohub,2013-01-26 13:15:00,
2013-01-26 08:20:00,14.2,10.0,30.12,NW,310,0.0,0.0,83,0.00,,,0.00,meteohub,2013-01-26 13:20:00,
2013-01-26 08:25:00,14.5,10.0,30.12,NW,310,0.0,0.0,82,0.00,,,0.00,meteohub,2013-01-26 13:25:00,
2013-01-26 08:30:00,14.9,10.2,30.12,NW,310,0.0,0.0,81,0.00,,,0.00,meteohub,2013-01-26 13:30:00,
2013-01-26 08:35:00,15.3,10.4,30.12,NW,310,0.0,0.0,81,0.00,,,0.00,meteohub,2013-01-26 13:35:00,
2013-01-26 08:40:00,15.6,10.6,30.12,NW,310,0.0,0.0,80,0.00,,,0.00,meteohub,2013-01-26 13:40:00,
2013-01-26 08:46:00,16.2,10.8,30.12,NW,310,0.0,0.0,79,0.00,,,0.00,meteohub,2013-01-26 13:46:00,
2013-01-26 08:51:00,16.3,10.9,30.12,NW,310,0.0,0.0,79,0.00,,,0.00,meteohub,2013-01-26 13:51:00,
2013-01-26 08:56:00,16.7,11.1,30.12,NW,310,0.0,0.0,78,0.00,,,0.00,meteohub,2013-01-26 13:56:00,
2013-01-26 09:01:00,17.1,11.1,30.13,NW,310,0.0,0.0,77,0.00,,,0.00,meteohub,2013-01-26 14:01:00,
2013-01-26 09:06:00,17.1,10.8,30.13,NW,310,0.0,0.0,76,0.00,,,0.00,meteohub,2013-01-26 14:06:00,
2013-01-26 09:11:00,17.2,11.3,30.13,NW,310,0.0,0.0,77,0.00,,,0.00,meteohub,2013-01-26 14:11:00,
2013-01-26 09:16:00,17.6,11.3,30.13,NW,310,0.0,0.0,76,0.00,,,0.00,meteohub,2013-01-26 14:16:00,
2013-01-26 09:22:00,18.0,11.7,30.13,NW,310,0.0,0.0,76,0.00,,,0.00,meteohub,2013-01-26 14:22:00,
2013-01-26 09:27:00,18.3,11.7,30.13,NW,310,0.0,0.0,75,0.00,,,0.00,meteohub,2013-01-26 14:27:00,
2013-01-26 09:32:00,18.9,12.2,30.12,NW,310,0.0,0.0,75,0.00,,,0.00,meteohub,2013-01-26 14:32:00,
2013-01-26 09:37:00,19.0,11.8,30.13,North,-999,-999.0,0.0,73,0.00,,,0.00,meteohub,2013-01-26 14:37:00,
2013-01-26 09:42:00,19.0,11.5,30.13,NW,310,0.0,0.0,72,0.00,,,0.00,meteohub,2013-01-26 14:42:00,
2013-01-26 09:47:00,19.0,11.1,30.13,NW,310,0.0,0.0,71,0.00,,,0.00,meteohub,2013-01-26 14:47:00,
2013-01-26 09:52:00,19.2,11.3,30.13,NW,310,0.0,0.0,71,0.00,,,0.00,meteohub,2013-01-26 14:52:00,
2013-01-26 09:57:00,19.4,11.3,30.13,NW,310,0.0,0.0,70,0.00,,,0.00,meteohub,2013-01-26 14:57:00,
2013-01-26 10:02:00,19.6,11.7,30.13,NW,310,0.0,0.0,71,0.00,,,0.00,meteohub,2013-01-26 15:02:00,
2013-01-26 10:08:00,20.1,12.2,30.13,NW,310,0.0,0.0,71,0.00,,,0.00,meteohub,2013-01-26 15:08:00,
2013-01-26 10:13:00,20.3,11.5,30.13,NW,310,0.0,0.0,68,0.00,,,0.00,meteohub,2013-01-26 15:13:00,
2013-01-26 10:18:00,20.5,12.2,30.13,NW,310,0.0,0.0,70,0.00,,,0.00,meteohub,2013-01-26 15:18:00,
2013-01-26 10:23:00,20.8,12.2,30.13,NW,310,0.0,0.0,69,0.00,,,0.00,meteohub,2013-01-26 15:23:00,
2013-01-26 10:28:00,20.8,11.7,30.13,NW,310,0.0,0.0,67,0.00,,,0.00,meteohub,2013-01-26 15:28:00,
2013-01-26 10:33:00,21.0,12.2,30.13,NW,310,0.0,0.0,68,0.00,,,0.00,meteohub,2013-01-26 15:33:00,
2013-01-26 10:38:00,20.8,12.0,30.13,NW,310,0.0,0.0,68,0.00,,,0.00,meteohub,2013-01-26 15:38:00,
2013-01-26 10:44:00,21.0,12.2,30.13,NW,310,0.0,0.0,68,0.00,,,0.00,meteohub,2013-01-26 15:44:00,
2013-01-26 10:49:00,21.6,12.9,30.13,NW,310,0.0,0.0,69,0.00,,,0.00,meteohub,2013-01-26 15:49:00,
2013-01-26 10:54:00,21.7,12.6,30.13,NW,310,0.0,0.0,67,0.00,,,0.00,meteohub,2013-01-26 15:54:00,
2013-01-26 10:59:00,21.7,12.6,30.13,NW,310,0.0,0.0,67,0.00,,,0.00,meteohub,2013-01-26 15:59:00,
2013-01-26 11:04:00,21.9,12.4,30.13,NW,310,0.0,0.0,66,0.00,,,0.00,meteohub,2013-01-26 16:04:00,
2013-01-26 11:09:00,21.9,11.7,30.12,NW,310,0.0,0.0,64,0.00,,,0.00,meteohub,2013-01-26 16:09:00,
2013-01-26 11:14:00,22.3,12.7,30.12,NW,310,0.0,0.0,66,0.00,,,0.00,meteohub,2013-01-26 16:14:00,
2013-01-26 11:20:00,22.6,12.7,30.12,NW,310,0.0,0.0,65,0.00,,,0.00,meteohub,2013-01-26 16:20:00,
2013-01-26 11:25:00,22.8,12.2,30.12,NW,310,0.0,0.0,63,0.00,,,0.00,meteohub,2013-01-26 16:25:00,
2013-01-26 11:30:00,22.8,12.6,30.12,NW,310,0.0,0.0,64,0.00,,,0.00,meteohub,2013-01-26 16:30:00,
2013-01-26 11:35:00,23.2,12.7,30.11,NW,310,0.0,0.0,64,0.00,,,0.00,meteohub,2013-01-26 16:35:00,
2013-01-26 11:40:00,23.4,13.3,30.12,NW,310,0.0,0.0,65,0.00,,,0.00,meteohub,2013-01-26 16:40:00,
2013-01-26 11:45:00,23.4,13.6,30.11,NW,310,0.0,0.0,66,0.00,,,0.00,meteohub,2013-01-26 16:45:00,
2013-01-26 11:51:00,23.5,13.5,30.11,NW,310,0.0,0.0,65,0.00,,,0.00,meteohub,2013-01-26 16:51:00,
2013-01-26 11:56:00,23.9,13.5,30.11,NW,310,0.0,0.0,64,0.00,,,0.00,meteohub,2013-01-26 16:56:00,
2013-01-26 12:01:00,24.1,13.3,30.11,NW,310,0.0,0.0,63,0.00,,,0.00,meteohub,2013-01-26 17:01:00,
2013-01-26 12:06:00,24.3,13.5,30.11,NW,310,0.0,0.0,63,0.00,,,0.00,meteohub,2013-01-26 17:06:00,
2013-01-26 12:11:00,24.1,13.3,30.10,NW,310,0.0,0.0,63,0.00,,,0.00,meteohub,2013-01-26 17:11:00,
2013-01-26 12:16:00,24.4,14.0,30.10,NW,310,0.0,0.0,64,0.00,,,0.00,meteohub,2013-01-26 17:16:00,
2013-01-26 12:21:00,24.8,13.3,30.10,NW,310,0.0,0.0,61,0.00,,,0.00,meteohub,2013-01-26 17:21:00,
2013-01-26 12:26:00,25.0,13.5,30.10,NW,310,0.0,0.0,61,0.00,,,0.00,meteohub,2013-01-26 17:26:00,
2013-01-26 12:32:00,25.2,13.6,30.10,NW,310,0.0,0.0,61,0.00,,,0.00,meteohub,2013-01-26 17:32:00,
2013-01-26 12:37:00,25.3,14.2,30.10,NW,310,0.0,0.0,62,0.00,,,0.00,meteohub,2013-01-26 17:37:00,
2013-01-26 12:42:00,25.2,11.7,30.10,NW,310,0.0,0.0,56,0.00,,,0.00,meteohub,2013-01-26 17:42:00,
2013-01-26 12:47:00,25.2,12.9,30.10,NW,310,0.0,0.0,59,0.00,,,0.00,meteohub,2013-01-26 17:47:00,
2013-01-26 12:52:00,25.3,13.8,30.10,NW,310,0.0,0.0,61,0.00,,,0.00,meteohub,2013-01-26 17:52:00,
2013-01-26 12:57:00,26.1,13.6,30.10,NW,310,0.0,0.0,59,0.00,,,0.00,meteohub,2013-01-26 17:57:00,
2013-01-26 13:02:00,26.2,13.5,30.10,NW,310,0.0,0.0,58,0.00,,,0.00,meteohub,2013-01-26 18:02:00,
2013-01-26 13:07:00,26.1,12.9,30.10,NW,310,0.0,0.0,57,0.00,,,0.00,meteohub,2013-01-26 18:07:00,
2013-01-26 13:12:00,25.5,12.0,30.09,NW,310,0.0,0.0,56,0.00,,,0.00,meteohub,2013-01-26 18:12:00,
2013-01-26 13:17:00,25.5,11.7,30.09,NW,310,0.0,0.0,55,0.00,,,0.00,meteohub,2013-01-26 18:17:00,
2013-01-26 13:22:00,26.1,12.9,30.09,NW,310,0.0,0.0,57,0.00,,,0.00,meteohub,2013-01-26 18:22:00,
2013-01-26 13:27:00,26.2,11.8,30.09,NW,310,0.0,0.0,54,0.00,,,0.00,meteohub,2013-01-26 18:27:00,
2013-01-26 13:32:00,26.4,13.3,30.09,NW,310,0.0,0.0,57,0.00,,,0.00,meteohub,2013-01-26 18:32:00,
2013-01-26 13:37:00,26.4,12.0,30.09,NW,310,0.0,0.0,54,0.00,,,0.00,meteohub,2013-01-26 18:37:00,
2013-01-26 13:42:00,26.2,11.5,30.08,NW,310,0.0,0.0,53,0.00,,,0.00,meteohub,2013-01-26 18:42:00,
2013-01-26 13:47:00,26.2,11.5,30.09,NW,310,0.0,0.0,53,0.00,,,0.00,meteohub,2013-01-26 18:47:00,
2013-01-26 13:52:00,26.2,11.5,30.09,NW,310,0.0,0.0,53,0.00,,,0.00,meteohub,2013-01-26 18:52:00,
2013-01-26 13:57:00,26.2,11.5,30.09,NW,310,0.0,0.0,53,0.00,,,0.00,meteohub,2013-01-26 18:57:00,
2013-01-26 14:02:00,26.2,12.7,30.09,NW,310,0.0,0.0,56,0.00,,,0.00,meteohub,2013-01-26 19:02:00,
2013-01-26 14:07:00,26.2,12.7,30.09,NW,310,0.0,0.0,56,0.00,,,0.00,meteohub,2013-01-26 19:07:00,
2013-01-26 14:12:00,26.4,12.0,30.09,NW,310,0.0,0.0,54,0.00,,,0.00,meteohub,2013-01-26 19:12:00,
2013-01-26 14:17:00,26.2,12.2,30.10,NW,310,0.0,0.0,55,0.00,,,0.00,meteohub,2013-01-26 19:17:00,
2013-01-26 14:22:00,25.9,11.1,30.10,NW,310,0.0,0.0,53,0.00,,,0.00,meteohub,2013-01-26 19:22:00,
2013-01-26 14:27:00,25.7,11.3,30.10,NW,310,0.0,0.0,54,0.00,,,0.00,meteohub,2013-01-26 19:27:00,
2013-01-26 14:32:00,25.7,12.2,30.10,NW,310,0.0,0.0,56,0.00,,,0.00,meteohub,2013-01-26 19:32:00,
2013-01-26 14:37:00,26.2,12.2,30.10,NW,310,0.0,0.0,55,0.00,,,0.00,meteohub,2013-01-26 19:37:00,
2013-01-26 14:42:00,26.6,12.2,30.10,NW,310,0.0,0.0,54,0.00,,,0.00,meteohub,2013-01-26 19:42:00,
2013-01-26 14:47:00,26.8,10.2,30.10,NW,310,0.0,0.0,49,0.00,,,0.00,meteohub,2013-01-26 19:47:00,
2013-01-26 14:52:00,26.2,9.1,30.10,NW,310,0.0,0.0,48,0.00,,,0.00,meteohub,2013-01-26 19:52:00,
2013-01-26 14:57:00,26.1,8.6,30.10,NW,310,0.0,0.0,47,0.00,,,0.00,meteohub,2013-01-26 19:57:00,
2013-01-26 15:02:00,25.7,8.2,30.11,NW,310,0.0,0.0,47,0.00,,,0.00,meteohub,2013-01-26 20:02:00,
2013-01-26 15:07:00,25.3,8.4,30.11,NW,310,0.0,0.0,48,0.00,,,0.00,meteohub,2013-01-26 20:07:00,
2013-01-26 15:12:00,25.3,8.4,30.12,NW,310,0.0,0.0,48,0.00,,,0.00,meteohub,2013-01-26 20:12:00,
2013-01-26 15:17:00,25.2,8.2,30.12,NW,310,0.0,0.0,48,0.00,,,0.00,meteohub,2013-01-26 20:17:00,
2013-01-26 15:22:00,25.2,7.3,30.12,NW,310,0.0,0.0,46,0.00,,,0.00,meteohub,2013-01-26 20:22:00,
2013-01-26 15:27:00,25.0,8.6,30.12,NW,310,0.0,0.0,49,0.00,,,0.00,meteohub,2013-01-26 20:27:00,
2013-01-26 15:32:00,25.0,9.0,30.13,NW,310,0.0,0.0,50,0.00,,,0.00,meteohub,2013-01-26 20:32:00,
2013-01-26 15:37:00,24.8,7.0,30.13,NW,310,0.0,0.0,46,0.00,,,0.00,meteohub,2013-01-26 20:37:00,
2013-01-26 15:42:00,24.4,6.6,30.14,NW,310,0.0,0.0,46,0.00,,,0.00,meteohub,2013-01-26 20:42:00,
2013-01-26 15:47:00,24.1,7.2,30.14,NW,310,0.0,0.0,48,0.00,,,0.00,meteohub,2013-01-26 20:47:00,
2013-01-26 15:52:00,23.7,7.3,30.14,NW,310,0.0,0.0,49,0.00,,,0.00,meteohub,2013-01-26 20:52:00,
2013-01-26 15:57:00,23.5,6.3,30.14,NW,310,0.0,0.0,47,0.00,,,0.00,meteohub,2013-01-26 20:57:00,
2013-01-26 16:02:00,23.2,6.4,30.15,NW,310,0.0,0.0,48,0.00,,,0.00,meteohub,2013-01-26 21:02:00,
2013-01-26 16:07:00,23.0,5.7,30.16,NW,310,0.0,0.0,47,0.00,,,0.00,meteohub,2013-01-26 21:07:00,
2013-01-26 16:12:00,22.8,6.1,30.16,NW,310,0.0,0.0,48,0.00,,,0.00,meteohub,2013-01-26 21:12:00,
2013-01-26 16:17:00,22.6,6.4,30.16,NW,310,0.0,0.0,49,0.00,,,0.00,meteohub,2013-01-26 21:17:00,
2013-01-26 16:22:00,22.6,5.9,30.16,NW,310,0.0,0.0,48,0.00,,,0.00,meteohub,2013-01-26 21:22:00,
2013-01-26 16:27:00,22.5,6.3,30.16,NW,310,0.0,0.0,49,0.00,,,0.00,meteohub,2013-01-26 21:27:00,
2013-01-26 16:32:00,22.3,6.1,30.16,NW,310,0.0,0.0,49,0.00,,,0.00,meteohub,2013-01-26 21:32:00,
2013-01-26 16:37:00,22.3,6.4,30.16,NW,310,0.0,0.0,50,0.00,,,0.00,meteohub,2013-01-26 21:37:00,
2013-01-26 16:42:00,22.1,6.3,30.16,NW,310,0.0,0.0,50,0.00,,,0.00,meteohub,2013-01-26 21:42:00,
2013-01-26 16:47:00,21.9,6.1,30.16,NW,310,0.0,0.0,50,0.00,,,0.00,meteohub,2013-01-26 21:47:00,
2013-01-26 16:52:00,21.9,6.1,30.17,NW,310,0.0,0.0,50,0.00,,,0.00,meteohub,2013-01-26 21:52:00,
2013-01-26 16:57:00,21.7,6.4,30.17,NW,310,0.0,0.0,51,0.00,,,0.00,meteohub,2013-01-26 21:57:00,
2013-01-26 17:02:00,21.6,6.3,30.17,NW,310,0.0,0.0,51,0.00,,,0.00,meteohub,2013-01-26 22:02:00,
2013-01-26 17:07:00,21.4,6.4,30.17,NW,310,0.0,0.0,52,0.00,,,0.00,meteohub,2013-01-26 22:07:00,
2013-01-26 17:12:00,21.4,6.4,30.17,NW,310,0.0,0.0,52,0.00,,,0.00,meteohub,2013-01-26 22:12:00,
2013-01-26 17:17:00,21.0,6.6,30.18,NW,310,0.0,0.0,53,0.00,,,0.00,meteohub,2013-01-26 22:17:00,
2013-01-26 17:22:00,21.0,6.6,30.18,NW,310,0.0,0.0,53,0.00,,,0.00,meteohub,2013-01-26 22:22:00,
2013-01-26 17:27:00,20.8,5.9,30.18,NW,310,0.0,0.0,52,0.00,,,0.00,meteohub,2013-01-26 22:27:00,
2013-01-26 17:32:00,20.8,5.9,30.19,NW,310,0.0,0.0,52,0.00,,,0.00,meteohub,2013-01-26 22:32:00,
2013-01-26 17:37:00,20.8,6.4,30.19,NW,310,0.0,0.0,53,0.00,,,0.00,meteohub,2013-01-26 22:37:00,
2013-01-26 17:42:00,21.0,6.6,30.19,NW,310,0.0,0.0,53,0.00,,,0.00,meteohub,2013-01-26 22:42:00,
2013-01-26 17:47:00,21.0,7.0,30.19,NW,310,0.0,0.0,54,0.00,,,0.00,meteohub,2013-01-26 22:47:00,
2013-01-26 17:52:00,20.8,6.8,30.20,NW,310,0.0,0.0,54,0.00,,,0.00,meteohub,2013-01-26 22:52:00,
2013-01-26 17:57:00,20.8,6.4,30.20,NW,310,0.0,0.0,53,0.00,,,0.00,meteohub,2013-01-26 22:57:00,
2013-01-26 18:02:00,20.7,6.3,30.20,NW,310,0.0,0.0,53,0.00,,,0.00,meteohub,2013-01-26 23:02:00,
2013-01-26 18:07:00,20.7,6.6,30.21,NW,310,0.0,0.0,54,0.00,,,0.00,meteohub,2013-01-26 23:07:00,
2013-01-26 18:12:00,20.5,6.4,30.21,NW,310,0.0,0.0,54,0.00,,,0.00,meteohub,2013-01-26 23:12:00,
2013-01-26 18:17:00,20.5,6.8,30.21,NW,310,0.0,0.0,55,0.00,,,0.00,meteohub,2013-01-26 23:17:00,
2013-01-26 18:22:00,20.1,6.6,30.21,NW,310,0.0,0.0,55,0.00,,,0.00,meteohub,2013-01-26 23:22:00,
2013-01-26 18:27:00,19.9,6.4,30.22,NW,310,0.0,0.0,55,0.00,,,0.00,meteohub,2013-01-26 23:27:00,
2013-01-26 18:32:00,19.9,6.8,30.22,NW,310,0.0,0.0,56,0.00,,,0.00,meteohub,2013-01-26 23:32:00,
2013-01-26 18:37:00,19.8,6.6,30.22,NW,310,0.0,0.0,56,0.00,,,0.00,meteohub,2013-01-26 23:37:00,
2013-01-26 18:42:00,19.8,6.6,30.22,NW,310,0.0,0.0,56,0.00,,,0.00,meteohub,2013-01-26 23:42:00,
2013-01-26 18:47:00,19.8,6.6,30.22,NW,310,0.0,0.0,56,0.00,,,0.00,meteohub,2013-01-26 23:47:00,
2013-01-26 18:52:00,19.8,6.3,30.23,NW,310,0.0,0.0,55,0.00,,,0.00,meteohub,2013-01-26 23:52:00,
2013-01-26 18:57:00,19.8,6.3,30.23,NW,310,0.0,0.0,55,0.00,,,0.00,meteohub,2013-01-26 23:57:00,
2013-01-26 19:02:00,19.8,5.7,30.23,NW,310,0.0,0.0,54,0.00,,,0.00,meteohub,2013-01-27 00:02:00,
2013-01-26 19:07:00,19.8,5.7,30.24,NW,310,0.0,0.0,54,0.00,,,0.00,meteohub,2013-01-27 00:07:00,
2013-01-26 19:12:00,19.8,5.4,30.23,NW,310,0.0,0.0,53,0.00,,,0.00,meteohub,2013-01-27 00:12:00,
2013-01-26 19:17:00,19.8,5.7,30.23,NW,310,0.0,0.0,54,0.00,,,0.00,meteohub,2013-01-27 00:17:00,
2013-01-26 19:22:00,19.8,5.4,30.24,NW,310,0.0,0.0,53,0.00,,,0.00,meteohub,2013-01-27 00:22:00,
2013-01-26 19:27:00,19.8,5.7,30.24,NW,310,0.0,0.0,54,0.00,,,0.00,meteohub,2013-01-27 00:27:00,
2013-01-26 19:32:00,19.6,5.2,30.24,NW,310,0.0,0.0,53,0.00,,,0.00,meteohub,2013-01-27 00:32:00,
2013-01-26 19:37:00,19.6,5.2,30.24,NW,310,0.0,0.0,53,0.00,,,0.00,meteohub,2013-01-27 00:37:00,
2013-01-26 19:42:00,19.4,5.0,30.24,NW,310,0.0,0.0,53,0.00,,,0.00,meteohub,2013-01-27 00:42:00,
2013-01-26 19:47:00,19.4,5.0,30.24,NW,310,0.0,0.0,53,0.00,,,0.00,meteohub,2013-01-27 00:47:00,
2013-01-26 19:52:00,19.4,5.0,30.25,NW,310,0.0,0.0,53,0.00,,,0.00,meteohub,2013-01-27 00:52:00,
2013-01-26 19:57:00,19.2,4.8,30.25,NW,310,0.0,0.0,53,0.00,,,0.00,meteohub,2013-01-27 00:57:00,
2013-01-26 20:02:00,19.2,4.8,30.25,NW,310,0.0,0.0,53,0.00,,,0.00,meteohub,2013-01-27 01:02:00,
2013-01-26 20:07:00,19.0,4.6,30.24,NW,310,0.0,0.0,53,0.00,,,0.00,meteohub,2013-01-27 01:07:00,
2013-01-26 20:12:00,19.0,4.6,30.25,North,-999,-999.0,0.0,53,0.00,,,0.00,meteohub,2013-01-27 01:12:00,
2013-01-26 20:17:00,19.0,4.6,30.25,NW,310,0.0,0.0,53,0.00,,,0.00,meteohub,2013-01-27 01:17:00,
2013-01-26 20:22:00,18.9,5.0,30.25,NW,310,0.0,0.0,54,0.00,,,0.00,meteohub,2013-01-27 01:22:00,
2013-01-26 20:27:00,18.7,4.8,30.25,NW,310,0.0,0.0,54,0.00,,,0.00,meteohub,2013-01-27 01:27:00,
2013-01-26 20:32:00,18.5,4.6,30.25,NW,310,0.0,0.0,54,0.00,,,0.00,meteohub,2013-01-27 01:32:00,
2013-01-26 20:37:00,18.3,4.1,30.25,NW,310,0.0,0.0,53,0.00,,,0.00,meteohub,2013-01-27 01:37:00,
2013-01-26 20:42:00,18.3,4.1,30.25,NW,310,0.0,0.0,53,0.00,,,0.00,meteohub,2013-01-27 01:42:00,
2013-01-26 20:47:00,18.3,3.6,30.26,NW,310,0.0,0.0,52,0.00,,,0.00,meteohub,2013-01-27 01:47:00,
2013-01-26 20:52:00,18.3,4.1,30.26,NW,310,0.0,0.0,53,0.00,,,0.00,meteohub,2013-01-27 01:52:00,
2013-01-26 20:57:00,18.3,4.5,30.27,NW,310,0.0,0.0,54,0.00,,,0.00,meteohub,2013-01-27 01:57:00,
2013-01-26 21:02:00,18.1,3.9,30.27,NW,310,0.0,0.0,53,0.00,,,0.00,meteohub,2013-01-27 02:02:00,
2013-01-26 21:07:00,18.0,3.7,30.27,NW,310,0.0,0.0,53,0.00,,,0.00,meteohub,2013-01-27 02:07:00,
2013-01-26 21:12:00,18.0,4.1,30.27,NW,310,0.0,0.0,54,0.00,,,0.00,meteohub,2013-01-27 02:12:00,
2013-01-26 21:17:00,17.8,3.9,30.28,NW,310,0.0,0.0,54,0.00,,,0.00,meteohub,2013-01-27 02:17:00,
2013-01-26 21:22:00,17.8,3.9,30.28,NW,310,0.0,0.0,54,0.00,,,0.00,meteohub,2013-01-27 02:22:00,
2013-01-26 21:27:00,17.4,3.6,30.28,NW,310,0.0,0.0,54,0.00,,,0.00,meteohub,2013-01-27 02:27:00,
2013-01-26 21:32:00,17.2,3.9,30.29,NW,310,0.0,0.0,55,0.00,,,0.00,meteohub,2013-01-27 02:32:00,
2013-01-26 21:37:00,17.1,3.7,30.29,NW,310,0.0,0.0,55,0.00,,,0.00,meteohub,2013-01-27 02:37:00,
2013-01-26 21:42:00,17.1,3.7,30.30,NW,310,0.0,0.0,55,0.00,,,0.00,meteohub,2013-01-27 02:42:00,
2013-01-26 21:47:00,17.1,3.7,30.30,NW,310,0.0,0.0,55,0.00,,,0.00,meteohub,2013-01-27 02:47:00,
2013-01-26 21:52:00,17.1,3.7,30.30,NW,310,0.0,0.0,55,0.00,,,0.00,meteohub,2013-01-27 02:52:00,
2013-01-26 21:57:00,17.1,3.7,30.30,NW,310,0.0,0.0,55,0.00,,,0.00,meteohub,2013-01-27 02:57:00,
2013-01-26 22:02:00,16.9,3.9,30.31,NW,310,0.0,0.0,56,0.00,,,0.00,meteohub,2013-01-27 03:02:00,
2013-01-26 22:07:00,16.7,3.7,30.31,NW,310,0.0,0.0,56,0.00,,,0.00,meteohub,2013-01-27 03:07:00,
2013-01-26 22:12:00,16.5,3.6,30.31,NW,310,0.0,0.0,56,0.00,,,0.00,meteohub,2013-01-27 03:12:00,
2013-01-26 22:17:00,16.3,3.4,30.31,NW,310,0.0,0.0,56,0.00,,,0.00,meteohub,2013-01-27 03:17:00,
2013-01-26 22:22:00,16.5,3.6,30.32,NW,310,0.0,0.0,56,0.00,,,0.00,meteohub,2013-01-27 03:22:00,
2013-01-26 22:27:00,16.3,3.4,30.31,NW,310,0.0,0.0,56,0.00,,,0.00,meteohub,2013-01-27 03:27:00,
2013-01-26 22:32:00,16.3,3.4,30.32,NW,310,0.0,0.0,56,0.00,,,0.00,meteohub,2013-01-27 03:32:00,
2013-01-26 22:37:00,16.3,3.4,30.32,NW,310,0.0,0.0,56,0.00,,,0.00,meteohub,2013-01-27 03:37:00,
2013-01-26 22:42:00,16.5,3.2,30.32,NW,310,0.0,0.0,55,0.00,,,0.00,meteohub,2013-01-27 03:42:00,
2013-01-26 22:47:00,16.5,3.2,30.32,NW,310,0.0,0.0,55,0.00,,,0.00,meteohub,2013-01-27 03:47:00,
2013-01-26 22:52:00,16.5,3.6,30.32,NW,310,0.0,0.0,56,0.00,,,0.00,meteohub,2013-01-27 03:52:00,
2013-01-26 22:57:00,16.5,3.6,30.33,NW,310,0.0,0.0,56,0.00,,,0.00,meteohub,2013-01-27 03:57:00,
2013-01-26 23:02:00,16.3,3.4,30.33,NW,310,0.0,0.0,56,0.00,,,0.00,meteohub,2013-01-27 04:02:00,
2013-01-26 23:07:00,16.3,3.4,30.33,NW,310,0.0,0.0,56,0.00,,,0.00,meteohub,2013-01-27 04:07:00,
2013-01-26 23:12:00,16.2,3.2,30.33,NW,310,0.0,0.0,56,0.00,,,0.00,meteohub,2013-01-27 04:12:00,
2013-01-26 23:17:00,16.2,3.2,30.34,NW,310,0.0,0.0,56,0.00,,,0.00,meteohub,2013-01-27 04:17:00,
2013-01-26 23:22:00,16.2,3.2,30.34,NW,310,0.0,0.0,56,0.00,,,0.00,meteohub,2013-01-27 04:22:00,
2013-01-26 23:27:00,16.2,3.6,30.34,NW,310,0.0,0.0,57,0.00,,,0.00,meteohub,2013-01-27 04:27:00,
2013-01-26 23:32:00,16.2,3.6,30.34,NW,310,0.0,0.0,57,0.00,,,0.00,meteohub,2013-01-27 04:32:00,
2013-01-26 23:37:00,16.2,3.6,30.34,NW,310,0.0,0.0,57,0.00,,,0.00,meteohub,2013-01-27 04:37:00,
2013-01-26 23:42:00,16.0,3.4,30.35,NW,310,0.0,0.0,57,0.00,,,0.00,meteohub,2013-01-27 04:42:00,
2013-01-26 23:47:00,16.0,3.7,30.35,NW,310,0.0,0.0,58,0.00,,,0.00,meteohub,2013-01-27 04:47:00,
2013-01-26 23:52:00,16.0,3.7,30.35,NW,310,0.0,0.0,58,0.00,,,0.00,meteohub,2013-01-27 04:52:00,
2013-01-26 23:57:00,16.0,3.7,30.35,NW,310,0.0,0.0,58,0.00,,,0.00,meteohub,2013-01-27 04:57:00,